Location: Vancouver
(49.2500°N, 123.1330°W)
Time: 03:42:46
(UTC-07:00)

AO-27 - Visible Passes

Search period start: 31 October 2014 00:00
Search period end: 09 November 2014 23:00
Orbit: 787 x 798 km, 98.7° (Epoch: 30 October)

Date Brightness Start Highest point End Pass type
(mag) Time Alt. Az. Time Alt. Az. Time Alt. Az.
31 Oct 10.3 03:58:01 10° NNE 03:58:32 13° NNE 03:58:32 13° NNE visible
31 Oct 9.9 05:39:09 10° NNW 05:39:17 10° NNW 05:39:17 10° NNW visible
01 Nov 10.6 03:29:13 10° NNE 03:29:14 10° NNE 03:29:14 10° NNE visible
01 Nov 10.0 05:09:29 10° N 05:10:00 12° NNW 05:10:00 12° NNW visible
02 Nov 10.1 03:40:12 10° N 03:40:43 13° N 03:40:43 13° N visible
03 Nov 10.3 03:11:08 10° N 03:11:26 12° N 03:11:26 12° N visible
04 Nov 10.1 04:22:52 10° NNW 04:22:54 10° NNW 04:22:54 10° NNW visible
05 Nov 10.2 03:53:27 10° N 03:53:37 11° N 03:53:37 11° N visible
06 Nov 10.3 03:24:17 10° N 03:24:20 10° N 03:24:20 10° N visible
